Vorticity
nan nan nan nan nan nan nan nan nan nan nan nan nan nan nan nan nan nan nan nan nan nan nan nan nan nan nan nan nan nan nan nan
nan 7 10 15 15 9 10 8 8 5 6 6 7 8 7 6 6 6 6 6 5 6 5 5 5 5 5 6 6 7 6 nan
nan 5 6 9 12 15 14 11 10 9 10 8 6 6 9 8 8 7 6 6 6 6 5 6 7 7 6 6 5 4 6 nan
nan 6 7 9 7 8 12 16 14 11 7 8 8 6 7 9 10 9 7 6 7 6 7 6 4 5 8 7 6 7 8 nan
nan 8 7 8 9 9 8 8 9 12 8 8 8 8 6 6 7 8 10 7 6 8 7 8 7 6 7 8 7 6 7 nan
nan 7 8 9 10 7 6 7 6 8 14 10 8 7 8 7 7 7 6 8 6 6 7 8 7 7 7 7 6 6 6 nan
nan 9 8 7 9 8 7 7 6 5 10 15 10 6 8 8 7 7 6 7 7 5 6 7 7 7 7 7 7 7 6 nan
nan 9 7 8 8 8 9 8 7 7 7 7 11 13 6 8 8 7 7 6 6 6 7 7 7 8 7 7 8 7 8 nan
nan 8 8 7 8 10 10 8 8 7 7 6 7 14 15 6 7 8 9 9 7 5 5 7 7 8 8 8 8 8 8 nan
nan 8 7 7 10 10 9 8 9 8 8 7 7 5 14 18 7 8 8 9 9 8 6 6 7 7 8 8 7 9 8 nan
nan 8 8 10 12 10 9 10 10 9 8 7 7 9 7 11 15 11 8 8 8 8 7 7 7 7 8 7 8 9 10 nan
nan 7 6 11 13 11 10 9 9 8 8 7 7 7 8 8 10 13 11 7 7 8 8 5 8 9 10 8 9 7 9 nan
nan 7 8 11 10 8 8 8 8 10 8 6 8 8 10 10 6 13 13 12 5 6 8 7 6 6 6 10 10 10 8 nan
nan 7 9 11 10 9 9 10 9 8 9 10 10 9 10 9 5 7 16 13 10 10 5 5 8 7 1 8 9 7 12 nan
nan 6 9 9 10 12 10 10 9 9 9 10 11 10 8 7 8 6 13 16 14 8 9 6 5 6 6 1 10 11 8 nan
nan 8 11 10 10 11 11 10 9 9 9 8 8 10 9 9 10 9 6 13 13 6 6 7 8 6 7 4 6 13 8 nan
nan 9 10 10 11 12 12 10 10 9 9 8 10 14 15 12 10 10 12 9 15 13 9 6 5 7 7 6 3 5 9 nan
nan 10 9 10 11 12 12 11 11 12 11 13 13 13 18 19 16 15 11 7 8 18 21 12 8 7 7 8 7 4 3 nan
nan 9 9 9 10 12 13 14 13 12 15 13 12 13 13 15 18 17 11 12 10 13 13 20 15 8 9 6 9 9 7 nan
nan nan nan nan nan nan nan nan nan nan nan nan nan nan nan nan nan nan nan nan nan nan nan nan nan nan nan nan nan nan nan nan
CAPE
936 885 1017 1317 1656 1953 1976 1897 1746 1630 1667 1822 1950 1973 1848 1766 1795 1902 1930 1965 1734 1161 894 813 789 761 656 572 576 498 420 509
0 0 0 350 941 1401 1746 1858 1737 1622 1610 1732 1841 1833 1726 1697 1707 1838 1874 1841 1608 1091 770 667 699 675 563 526 455 361 334 464
0 0 0 0 1 799 1169 1196 1624 1565 1553 1604 1517 1417 1444 1472 1490 1684 1830 1739 1523 1060 728 590 564 545 477 517 364 108 40 283
0 0 0 0 0 0 14 515 772 1072 1401 1355 1450 1418 1228 1400 1355 1466 1697 1663 1428 1071 730 523 437 209 262 368 127 59 104 210
0 0 0 0 0 0 0 0 20 771 732 1138 1365 1229 1202 1289 1162 1175 1308 1273 950 838 596 278 190 67 62 78 39 11 88 95
0 0 0 0 0 0 0 0 0 0 581 1091 1332 1127 1055 1148 1236 1110 1157 1150 858 581 281 150 103 33 9 13 21 3 21 69
0 0 0 0 0 0 0 0 0 0 0 730 1172 1246 1215 1064 1008 919 1153 1047 830 547 185 93 70 29 27 11 3 0 6 26
0 0 0 0 0 0 0 0 0 0 0 0 180 1189 1291 1253 1017 856 945 830 717 539 283 81 56 21 28 70 105 10 21 14
0 0 0 0 0 0 0 0 0 0 0 3 0 69 1047 1247 1149 992 995 914 712 526 268 34 2 0 19 12 48 87 24 39
0 0 0 0 0 0 0 0 0 0 0 0 0 0 0 1036 1100 1030 996 938 720 566 534 352 95 0 0 2 90 12 6 86
0 0 0 0 0 0 0 0 0 0 0 0 0 0 1 0 365 890 930 1051 903 724 603 554 331 74 24 5 3 44 45 86
0 0 0 0 0 0 0 0 0 0 1 0 0 0 0 4 1 315 955 1127 1104 896 828 601 512 374 241 158 0 61 50 51
0 0 0 0 0 0 2 2 2 2 2 4 0 0 0 9 0 1 663 785 1016 1071 865 636 379 322 88 21 0 0 0 0
0 0 2 0 1 1 0 5 7 4 0 0 0 0 2 16 12 0 133 499 604 930 821 762 524 204 415 150 487 256 16 1
1 2 1 0 2 1 3 6 10 6 0 0 1 0 0 0 0 0 0 144 228 852 896 829 732 314 383 399 109 302 183 0
0 0 0 7 4 3 4 7 8 10 16 1 4 0 0 0 0 1 0 14 86 306 649 781 688 543 385 439 0 0 78 55
0 0 3 6 5 6 9 8 15 17 20 21 3 1 2 0 0 0 0 0 70 10 121 663 593 597 558 584 16 0 0 0
0 2 6 8 7 10 13 9 14 10 16 14 8 9 1 0 1 4 0 0 0 63 375 344 717 624 576 571 541 342 103 76
4 6 5 3 2 3 11 15 11 9 23 18 13 9 22 4 1 0 0 0 0 17 202 341 500 647 475 387 411 505 381 204
5 4 1 6 12 11 10 13 11 11 12 11 15 8 7 4 5 1 0 0 0 2 220 0 146 145 133 283 206 182 105 115